Latest Weather Observations for Eildon Fire Tower

IDV60801

Issued at 11:35 pm EDT Friday 24 October 2014 (issued every 30 minutes, with the page automatically refreshed every 10 minutes)

About weather observations | Map of weather stations | Latest weather observations for VIC | Other Formats
Station Details ID: 088164 Name: EILDON FIRE TOWER Lat: -37.21 Lon: 145.84 Height: 637.0 m
Data from the previous 72 hours. | See also: Recent months at Eildon Fire Tower
Date/Time
EDT
Temp
°C
App
Temp
°C
Dew
Point
Rel
Hum
%
Delta-T
°C
Wind Press
QNH
hPa
Press
MSL
hPa
Rain
since 9 am
mm
Dir
 
Spd
km/h
Gust
km/h
Spd
kts
Gust
kts
24/11:30pm 20.6 17.7 6.5 40 7.3 W 11 11 6 6 - - 0.0
24/11:00pm 21.6 18.2 4.2 32 8.7 W 11 15 6 8 - - 0.0
24/10:30pm 22.4 19.7 5.8 34 8.6 NNW 9 9 5 5 - - 0.0
24/10:00pm 22.6 20.7 6.8 36 8.4 NW 6 6 3 3 - - 0.0
24/09:30pm 22.0 20.9 6.7 37 8.1 SW 2 4 1 2 - - 0.0
24/09:00pm 22.1 20.5 7.9 40 7.7 WNW 6 7 3 4 - - 0.0
24/08:30pm 22.5 19.6 8.2 40 7.8 WNW 13 15 7 8 - - 0.0
24/08:00pm 22.6 19.8 8.7 41 7.6 W 13 15 7 8 - - 0.0
24/07:30pm 23.2 21.4 8.1 38 8.2 WNW 7 11 4 6 - - 0.0
24/07:00pm 24.1 21.3 8.5 37 8.6 W 13 19 7 10 - - 0.0
24/06:30pm 24.9 22.1 8.4 35 9.1 W 13 19 7 10 - - 0.0
24/06:00pm 25.4 22.6 8.4 34 9.4 W 13 20 7 11 - - 0.0
24/05:30pm 25.5 22.9 9.3 36 9.1 WNW 13 19 7 10 - - 0.0
24/05:00pm 25.4 22.3 8.8 35 9.3 WNW 15 26 8 14 - - 0.0
24/04:30pm 25.0 22.0 10.8 41 8.2 W 17 28 9 15 - - 0.0
24/04:00pm 25.3 23.5 13.2 47 7.3 W 15 24 8 13 - - 0.0
24/03:30pm 25.1 22.8 13.0 47 7.2 W 17 24 9 13 - - 0.0
24/03:00pm 25.0 22.1 12.2 44 7.5 W 19 26 10 14 - - 0.0
24/02:30pm 25.0 22.4 11.9 44 7.7 WNW 17 26 9 14 - - 0.0
24/02:00pm 26.6 24.7 13.0 43 8.2 NW 15 26 8 14 - - 0.0
24/01:30pm 25.8 25.6 13.6 47 7.4 NNE 7 15 4 8 - - 0.0
24/01:00pm 27.1 25.6 12.0 39 8.9 N 11 26 6 14 - - 0.0
24/12:30pm 25.7 23.6 9.9 37 9.0 NNE 11 26 6 14 - - 0.0
24/12:00pm 27.0 24.9 12.3 40 8.7 NE 15 24 8 13 - - 0.0
24/11:30am 25.6 23.5 11.0 40 8.5 NE 13 20 7 11 - - 0.0
24/11:00am 24.9 22.7 10.8 41 8.1 NE 13 20 7 11 - - 0.0
24/10:30am 24.2 21.4 11.2 44 7.5 NE 17 28 9 15 - - 0.0
24/10:00am 22.6 19.0 10.4 46 6.9 NNE 20 33 11 18 - - 0.0
24/09:30am 21.6 17.4 11.0 51 6.0 NE 24 35 13 19 - - 0.0
24/09:00am 20.8 17.3 10.9 53 5.6 NE 20 28 11 15 - - 0.0
24/08:30am 19.8 16.4 10.5 55 5.2 NNE 19 26 10 14 - - 0.0
24/08:00am 18.9 14.2 10.5 58 4.7 NE 26 33 14 18 - - 0.0
24/07:30am 18.1 14.1 10.5 61 4.2 NE 22 32 12 17 - - 0.0
24/07:00am 17.1 11.6 10.5 65 3.6 NE 30 35 16 19 - - 0.0
24/06:30am 17.1 11.6 10.7 66 3.5 NE 30 37 16 20 - - 0.0
24/06:00am 16.7 12.8 10.8 68 3.3 NE 22 30 12 16 - - 0.0
24/05:30am 16.6 12.0 10.9 69 3.2 NE 26 33 14 18 - - 0.0
24/05:00am 15.5 11.4 11.5 77 2.2 NE 24 30 13 16 - - 0.0
24/04:30am 15.6 11.5 11.6 77 2.2 NE 24 28 13 15 - - 0.0
24/04:00am 14.8 10.4 11.8 82 1.7 ENE 26 32 14 17 - - 0.0
24/03:30am 14.9 10.9 11.7 81 1.8 ENE 24 28 13 15 - - 0.0
24/03:00am 14.5 11.0 12.2 86 1.3 ENE 22 30 12 16 - - 0.0
24/02:30am 15.6 12.4 11.8 78 2.1 E 20 24 11 13 - - 0.0
24/02:00am 15.5 12.4 11.7 78 2.1 ENE 19 22 10 12 - - 0.0
24/01:30am 15.8 12.6 11.8 77 2.2 ENE 20 24 11 13 - - 0.0
24/01:00am 16.4 12.8 12.0 75 2.5 E 22 28 12 15 - - 0.0
24/12:30am 16.8 12.5 11.9 73 2.8 E 26 32 14 17 - - 0.0
24/12:00am 16.8 12.1 12.1 74 2.7 E 28 33 15 18 - - 0.0
 
Date/Time
EDT
Temp
°C
App
Temp
°C
Dew
Point
Rel
Hum
%
Delta-T
°C
Wind Press
QNH
hPa
Press
MSL
hPa
Rain
since 9 am
mm
Dir
 
Spd
km/h
Gust
km/h
Spd
kts
Gust
kts
23/11:30pm 16.9 11.8 12.0 73 2.8 E 30 37 16 20 - - 0.0
23/11:00pm 17.1 12.1 12.2 73 2.8 E 30 37 16 20 - - 0.0
23/10:30pm 17.4 12.0 12.3 72 2.9 E 32 41 17 22 - - 0.0
23/10:00pm 17.7 12.2 12.4 71 3.0 E 33 41 18 22 - - 0.0
23/09:30pm 18.1 12.6 12.5 70 3.2 E 33 48 18 26 - - 0.0
23/09:00pm 19.3 14.5 12.8 66 3.8 E 30 43 16 23 - - 0.0
23/08:38pm 20.0 15.1 12.7 63 4.2 E 30 48 16 26 - - 0.0
23/08:30pm 20.2 15.8 12.9 63 4.3 E 28 39 15 21 - - 0.0
23/08:00pm 21.2 18.5 13.6 62 4.5 E 20 35 11 19 - - 0.0
23/07:30pm 22.2 19.6 13.8 59 5.0 E 20 26 11 14 - - 0.0
23/07:00pm 24.9 24.5 11.1 42 8.0 SW 4 17 2 9 - - 0.0
23/06:30pm 26.5 27.0 13.9 45 7.7 N 4 7 2 4 - - 0.0
23/06:00pm 27.0 26.1 10.7 36 9.5 NE 6 11 3 6 - - 0.0
23/05:30pm 27.1 25.2 9.0 32 10.2 NE 9 15 5 8 - - 0.0
23/05:00pm 26.9 24.9 8.8 32 10.2 NE 9 17 5 9 - - 0.0
23/04:30pm 27.6 26.1 9.0 31 10.5 NE 7 13 4 7 - - 0.0
23/04:00pm 27.9 25.9 10.1 33 10.3 NNE 11 17 6 9 - - 0.0
23/03:30pm 28.3 27.5 10.9 34 10.2 NNE 6 17 3 9 - - 0.0
23/03:00pm 26.8 24.9 10.5 36 9.4 NE 11 20 6 11 - - 0.0
23/02:30pm 26.5 24.4 9.8 35 9.5 NE 11 20 6 11 - - 0.0
23/02:00pm 26.4 24.8 10.1 36 9.3 NNE 9 20 5 11 - - 0.0
23/01:30pm 26.2 24.9 11.2 39 8.7 N 9 17 5 9 - - 0.0
23/01:00pm 26.8 27.1 14.5 46 7.6 ENE 6 9 3 5 - - 0.0
23/12:30pm 24.7 24.5 13.0 48 7.0 NNE 6 9 3 5 - - 0.0
23/12:00pm 22.1 22.7 15.2 65 4.2 SW 6 11 3 6 - - 0.0
23/11:30am 20.2 20.4 14.6 70 3.4 SW 7 9 4 5 - - 0.0
23/11:00am 18.5 17.9 13.6 73 2.9 W 9 13 5 7 - - 0.0
23/10:30am 17.6 17.4 13.7 78 2.3 WSW 7 11 4 6 - - 0.0
23/10:00am 16.3 16.3 13.6 84 1.6 WSW 6 9 3 5 - - 0.0
23/09:30am 15.3 15.2 13.2 87 1.2 WSW 6 9 3 5 - - 0.0
23/09:00am 14.1 13.6 12.7 91 0.8 WSW 7 13 4 7 - - 0.0
23/08:30am 14.8 14.2 11.6 81 1.8 NNW 6 7 3 4 - - 0.0
23/08:00am 16.8 17.0 12.9 78 2.2 SSE 4 7 2 4 - - 0.0
23/07:30am 14.3 13.7 12.3 88 1.1 SW 7 9 4 5 - - 0.0
23/07:00am 14.2 13.7 11.9 86 1.3 SW 6 7 3 4 - - 0.0
23/06:30am 13.7 13.5 11.9 89 1.0 SSW 4 6 2 3 - - 0.0
23/06:00am 15.9 15.3 11.7 76 2.3 E 6 9 3 5 - - 0.0
23/05:30am 16.2 15.4 11.6 74 2.6 E 7 9 4 5 - - 0.0
23/05:00am 16.8 16.5 11.5 71 3.0 ESE 4 6 2 3 - - 0.0
23/04:30am 17.3 16.0 11.3 68 3.4 ESE 9 11 5 6 - - 0.0
23/04:00am 17.3 15.0 11.8 70 3.1 E 15 17 8 9 - - 0.0
23/03:30am 17.5 15.9 11.5 68 3.4 E 11 15 6 8 - - 0.0
23/03:00am 17.4 16.6 11.7 69 3.2 SSE 7 11 4 6 - - 0.0
23/02:30am 18.8 18.4 11.1 61 4.3 SSW 4 9 2 5 - - 0.0
23/02:00am 18.8 18.0 11.6 63 4.1 NNE 7 9 4 5 - - 0.0
23/01:30am 18.0 16.6 12.2 69 3.3 ENE 11 13 6 7 - - 0.0
23/01:00am 19.2 18.0 11.7 62 4.3 E 9 11 5 6 - - 0.0
23/12:30am 19.3 18.1 11.6 61 4.4 E 9 11 5 6 - - 0.0
23/12:00am 19.8 19.5 11.6 59 4.7 WNW 4 7 2 4 - - 0.0
 
Date/Time
EDT
Temp
°C
App
Temp
°C
Dew
Point
Rel
Hum
%
Delta-T
°C
Wind Press
QNH
hPa
Press
MSL
hPa
Rain
since 9 am
mm
Dir
 
Spd
km/h
Gust
km/h
Spd
kts
Gust
kts
22/11:30pm 20.1 19.8 11.3 57 5.0 NW 4 7 2 4 - - 0.0
22/11:00pm 20.3 18.0 11.8 58 4.9 WNW 15 26 8 14 - - 0.0
22/10:30pm 20.0 16.4 11.8 59 4.7 WSW 22 26 12 14 - - 0.0
22/10:00pm 20.3 19.1 11.5 57 5.0 NNE 9 11 5 6 - - 0.0
22/09:30pm 20.3 19.2 11.8 58 4.9 NNE 9 11 5 6 - - 0.0
22/09:00pm 20.7 19.6 11.9 57 5.1 NNE 9 13 5 7 - - 0.0
22/08:30pm 20.8 18.9 11.7 56 5.2 NNE 13 17 7 9 - - 0.0
22/08:00pm 21.2 19.7 11.8 55 5.4 NE 11 17 6 9 - - 0.0
22/07:30pm 21.8 20.9 11.5 52 5.9 NNE 7 11 4 6 - - 0.0
22/07:00pm 22.9 22.5 11.0 47 6.8 NNW 4 6 2 3 - - 0.0
22/06:30pm 23.5 23.0 10.9 45 7.2 NNW 4 6 2 3 - - 0.0
22/06:00pm 24.4 24.0 11.0 43 7.7 NNE 4 6 2 3 - - 0.0
22/05:30pm 24.9 24.2 11.5 43 7.8 E 6 11 3 6 - - 0.0
22/05:00pm 25.3 24.8 10.7 40 8.4 NNE 4 7 2 4 - - 0.0
22/04:30pm 25.5 24.9 11.7 42 8.1 NE 6 9 3 5 - - 0.0
22/04:00pm 25.6 24.9 11.4 41 8.3 NE 6 9 3 5 - - 0.0
22/03:30pm 25.3 24.4 11.5 42 8.0 NE 7 13 4 7 - - 0.0
22/03:00pm 24.8 23.0 11.0 42 8.0 NE 11 17 6 9 - - 0.0
22/02:30pm 25.3 23.4 11.8 43 7.9 NE 13 20 7 11 - - 0.0
22/02:00pm 24.1 21.9 10.7 43 7.7 NE 13 19 7 10 - - 0.0
22/01:30pm 23.9 21.6 11.6 46 7.1 NE 15 26 8 14 - - 0.0
22/01:00pm 22.9 19.8 10.3 45 7.1 NE 17 26 9 14 - - 0.0
22/12:30pm 22.9 21.3 11.6 49 6.5 NNE 11 20 6 11 - - 0.0
22/12:00pm 22.5 20.3 10.9 48 6.6 NE 13 20 7 11 - - 0.0
22/11:30am 22.1 19.0 11.5 51 6.1 NE 19 26 10 14 - - 0.0
22/11:00am 21.3 18.3 10.8 51 5.9 NE 17 30 9 16 - - 0.0
22/10:30am 20.0 17.1 11.0 56 5.1 NE 17 26 9 14 - - 0.0
22/10:00am 18.4 14.7 10.3 59 4.5 NE 20 35 11 19 - - 0.0
22/09:30am 17.0 13.4 9.9 63 3.9 NE 19 30 10 16 - - 0.0
22/09:00am 17.0 13.6 10.6 66 3.5 NE 19 24 10 13 - - 0.0
22/08:30am 16.3 13.4 9.7 65 3.6 NE 15 20 8 11 - - 0.0
22/08:00am 15.3 12.0 9.7 69 3.0 NE 17 20 9 11 - - 0.0
22/07:30am 14.9 12.0 9.7 71 2.8 NNE 15 19 8 10 - - 0.0
22/07:00am 14.2 11.2 9.4 73 2.5 NNE 15 19 8 10 - - 0.0
22/06:30am 14.0 11.4 9.2 73 2.5 NE 13 17 7 9 - - 0.0
22/06:00am 14.5 12.6 9.1 70 2.8 NNE 9 13 5 7 - - 0.0
22/05:30am 14.9 12.6 9.1 68 3.1 NNE 11 13 6 7 - - 0.0
22/05:00am 15.4 13.5 8.9 65 3.4 NE 9 11 5 6 - - 0.0
22/04:30am 15.3 13.0 9.0 66 3.3 NNE 11 13 6 7 - - 0.0
22/04:00am 15.4 13.1 8.9 65 3.4 NNE 11 13 6 7 - - 0.0
22/03:30am 15.8 12.4 9.0 64 3.6 NE 17 19 9 10 - - 0.0
22/03:00am 15.2 11.5 9.3 68 3.1 NE 19 22 10 12 - - 0.0
22/02:30am 15.5 11.7 9.2 66 3.3 NE 19 22 10 12 - - 0.0
22/02:00am 15.7 11.9 9.1 65 3.5 NE 19 20 10 11 - - 0.0
22/01:30am 15.7 12.4 9.4 66 3.4 NE 17 19 9 10 - - 0.0
22/01:00am 15.8 12.9 9.5 66 3.4 NE 15 17 8 9 - - 0.0
22/12:30am 16.3 13.4 9.5 64 3.7 NNE 15 17 8 9 - - 0.0
22/12:00am 17.1 14.4 9.0 59 4.3 NNE 13 15 7 8 - - 0.0

Other Formats:

Comma delimited format used in spreadsheet applications
http://www.bom.gov.au/fwo/IDV60801/IDV60801.94881.axf

JavaScript Object Notation format (JSON) in row-major order
http://www.bom.gov.au/fwo/IDV60801/IDV60801.94881.json